Regional Weather Roundup
Issued by NWS Glasgow, MT

Home | Current Version | Previous Version | Text Only | Print | Product List | Glossary On
Versions: 1 2 3 4 5 6 7 8 9 10 11 12 13 14 15 16 17 18 19 20 21 22 23 24 25 26 27
000
ASUS45 KGGW 270115
RWRGGW
HOURLY REGIONAL WEATHER ROUNDUP FOR NORTHEAST MONTANA
NATIONAL WEATHER SERVICE GLASGOW MONTANA
700 PM MDT TUE JUL 26 2016

NOTE: "FAIR" INDICATES FEW OR NO CLOUDS BELOW 12,000 FEET WITH NO
SIGNIFICANT WEATHER AND/OR OBSTRUCTIONS TO VISISBILITY.

NORTHEAST MONTANA


CITY           SKY/WX    TMP DP  RH WIND       PRES   REMARKS
GLASGOW        CLOUDY    78  57  48 E16       30.02R
PLENTYWOOD       N/A     74  54  49 NE6         N/A
WOLF POINT     SUNNY     82  56  40 E14       30.03S
JORDAN           N/A     86  56  35 E15       30.01R
WINNETT          N/A     86  49  27 E6G14       N/A
SIDNEY         SUNNY     80  61  52 NE14      30.03F
GLENDIVE       SUNNY     80  58  46 E13       30.05F
MALTA            N/A     79  61  53 NW8G20      N/A
SCOBEY           N/A     73  53  49 NE5       30.08R

FORT PECK REPORTS


CITY           SKY/WX    TMP DP  RH WIND       PRES   REMARKS
FORT PECK        N/A     80  58  46 NE15        N/A
THE PINES        N/A     80  59  48 NE15G24     N/A

SOUTHEAST MONTANA


CITY           SKY/WX    TMP DP  RH WIND       PRES   REMARKS
BILLINGS       CLOUDY    87  39  18 SE3       30.00F
MILES CITY     SUNNY     87  51  28 NE20      30.00R
BAKER          SUNNY     79  60  52 NE18      30.07R
LIVINGSTON     CLOUDY    81  40  23 SW15      30.11R

CENTRAL MONTANA


CITY           SKY/WX    TMP DP  RH WIND       PRES   REMARKS
HAVRE          CLOUDY    66  56  70 NW31G48   30.05R THUNDER
LEWISTOWN      LGT RAIN  76  46  34 SW9G26    30.12R
GREAT FALLS    CLOUDY    71  52  50 N22G30    30.06R
CUT BANK       CLOUDY    68  56  65 N7        30.09S
HELENA         SUNNY     87  39  18 W7        30.00S
BUTTE          CLOUDY    75  35  23 SW17G29   30.20R
BOZEMAN        MOSUNNY   76  47  35 S8        30.12S

WESTERN MONTANA


CITY           SKY/WX    TMP DP  RH WIND       PRES   REMARKS
MISSOULA       MOSUNNY   85  51  31 N16G24    30.02S
KALISPELL      NOT AVBL

NORTH DAKOTA


CITY           SKY/WX    TMP DP  RH WIND       PRES   REMARKS
WILLISTON      CLOUDY    78  55  44 NE10      30.06F
DICKINSON      SUNNY     73  54  51 NE10      30.05F
MINOT          CLOUDY    76  60  57 N6        30.05R
BISMARCK       CLOUDY    78  66  66 N16G24    30.00R

SOUTHERN SASKATCHEWAN


CITY           SKY/WX    TMP DP  RH WIND       PRES   REMARKS
REGINA         PTSUNNY   73  54  49 NE12      30.09R
ESTEVAN        PTSUNNY   73  55  53 NE8       30.08S
SWIFT CURRENT  SUNNY     70  57  64 E14       30.10R





USA.gov is the U.S. government's official web portal to all federal, state and local government web resources and services.